Regional Weather Roundup
Issued by NWS

Home | Current Version | Previous Version | Graphics & Text | Print | Product List | Glossary On
Versions: 1 2 3 4 5 6 7 8 9 10 11 12 13 14 15 16 17 18 19 20 21 22 23 24 25 26 27 28 29 30 31 32 33 34 35 36 37 38 39 40 41 42 43 44 45 46 47 48 49 50
000
ASUS45 KSLC 242210
RWRUT

UTAH REGIONAL WEATHER ROUNDUP
NATIONAL WEATHER SERVICE SALT LAKE CITY UT
400 PM MDT THU JUL 24 2014

UTZ001>011-023>025-242300-

NORTHERN UTAH

CITY           SKY/WX    TMP DP  RH WIND       PRES   REMARKS
HILL AFB       SUNNY     91  36  14 NW13      30.05F
LOGAN          SUNNY     91  41  17 N16       30.02F
OGDEN          SUNNY     92  34  13 N7        30.02F
PROVO AIRPORT  MOSUNNY   97  45  16 NW13      29.99F HX  93
SALT LAKE CITY MOSUNNY   92  36  14 NW15G24   30.00F
VERNAL         MOSUNNY   85  50  29 W6        30.10F
WENDOVER       SUNNY     93  32  11 E9        30.00F
HEBER CITY     SUNNY     95  34  11 SW21      30.07F HX  90
WEST JORDAN    SUNNY     91  48  22 NW20      30.04F

$$

UTZ012>022-026-027-242300-

SOUTHERN UTAH

CITY           SKY/WX    TMP DP  RH WIND       PRES   REMARKS
BRYCE CANYON   PTSUNNY   83  36  18 SW14G22   30.32F
CEDAR CITY     SUNNY     94  32  11 SW12G22   30.12F
MILFORD        SUNNY     99  28   8 S23G33    30.04F HX  92
MOAB/CYNLANDS  SUNNY     96  43  16 N3        30.02F HX  92
PRICE          PTSUNNY   89  49  25 VRB3      30.16F
ST GEORGE      CLEAR    108  41  10 NE5       29.89F HX 102
KANAB            N/A     97  43  15 S12       30.11F HX  92

$$

REGIONAL REPORTS     COLORADO/ARIZONA

CITY           SKY/WX    TMP DP  RH WIND       PRES   REMARKS
CRAIG, CO      MOSUNNY   77  51  40 SW10G21   30.18F
GRAND JUNCTION PTSUNNY   92  47  21 N8        30.08F
RIFLE          PTSUNNY   89  47  23 S14G21    30.15F
MONTROSE       TSTM      80  54  40 S14G23    30.22R
CORTEZ         PTSUNNY   89  50  26 S16       30.19F
PAGE, AZ       MOSUNNY   99  44  15 W6        30.03F HX  95
GRAND CANYON   PTSUNNY   84  44  24 VRB6      30.27F
KINGMAN        MOSUNNY  104  44  13 SW18G25   29.96F HX  99
FLAGSTAFF      CLOUDY    78  51  38 N9        30.31F

$$

REGIONAL REPORTS    NEVADA/IDAHO/WYOMING

CITY           SKY/WX    TMP DP  RH WIND       PRES   REMARKS
LAS VEGAS, NV  MOSUNNY  110  31   6 SW10G24   29.76F HX 102
ELY            SUNNY     93  17   6 S13G26    30.13F
ELKO           SUNNY     87  25  10 SW8G18    30.11F
POCATELLO, ID  SUNNY     80  38  22 W17G28    30.14F
BURLEY         SUNNY     73  43  33 W15G24    30.14F
EVANSTON, WY   MOSUNNY   86  37  17 W29G37    30.21F
ROCK SPRINGS   MOSUNNY   90  29  11 W29G39    30.15F

$$



USA.gov is the U.S. government's official web portal to all federal, state and local government web resources and services.